Airfield :
LOGIN :

Register | Disclaimer

   EN    FR    IT 

 










Legend :    VFR   Marginal VFR   IFR   Intensive IFR   Very Intensive IFR
Visi :
Ceiling :
>= 8 km
>= 3000ft
5 to 8 km
1000 to 3000 ft
1500m to 5 km
500 to 1000 ft
800 to 1500m
200 to 500 ft
< 800m
< 200 ft
Symbols :   Thunderstorms  Fog  Heavy snow  Heavy precipitations  Wind > 20 kt
SIGMETs :     Misc.  Thunderstorms  Icing  Turbulence  Mountain Waves  Volcanic Ashes







- Airport Elevation : 121 ft
- IATA code : HUY
- Download approach charts


EGNJ - Humberside

CURRENT METAR :
  • 212220Z AUTO 04004KT 5000 BR NCD 10/09 Q1017

EXPIRED METARs :
  • 212150Z AUTO 03005KT 6000 FEW003/// 10/09 Q1017
  • 212120Z AUTO 02005KT 8000 NCD 11/09 Q1017
  • 212050Z AUTO 01005KT 9999 NCD 11/10 Q1017
  • 211950Z 03005KT CAVOK 13/09 Q1017

TAF TAF EGNJ
Valid from the 21 at 21:00 until the 22 at 06:00 UTC


211955Z 2121/2206 03007KT CAVOK
PROB30 2121/2206 6000
ATIS : +44 1652 682 020
No reported NOTAMs for that airfield.



MET'MAP, your aeronautical weather chart ! - Copyright ORBIFLY December 2007 - Disclaimer

ORBIFLY MET'MAP TEAM :

Programming & Development : Alexandra Zaïnal
Concept & Development : Baudouin d'Aumeries
Co-Development & Prog : Marc-Olivier Méhu
Technical & hardware support : Manuel Goepfert

Contact : metmap@orbifly.com




SOURCES & CREDITS :

   NOAA